This demonstration page uses our WeatherBlox Daily Observations layout. Learn more.

Left ArrowRight Arrow

34.74481, -87.66753

Hourly Observations for April 25, 2017

Temp ( °F °C ) Dew Point ( °F °C ) Humidity (%) Winds ( mph kmh ) Pressure ( in mb ) Visibility ( mi km ) Precip ( " mm )
12:53 am 00:53 Clear 52 11.1 49 9.4 89 89 Calm 29.78 1008 10 16 0.00 0.00
1:53 am 01:53 Clear 52 11.1 50 10 93 93 Calm 29.78 1008 9 14 0.00 0.00
2:07 am 02:07 Clear with Mist and Fog 51 10.6 48 8.9 89 89 Calm 29.83 1010 2 3 0.00 0.00
2:16 am 02:16 Clear with Fog 51 10.6 49 9.4 92 92 Calm 29.83 1010 1 1 0.00 0.00
2:36 am 02:36 Clear with Mist and Fog 51 10.6 49 9.4 92 92 Calm 29.80 1009 2 3 0.00 0.00
2:41 am 02:41 Clear with Mist and Fog 50 10 49 9.4 96 96 Calm 29.80 1009 1 1 0.00 0.00
2:53 am 02:53 Clear with Mist and Fog 50 10 48 8.9 93 93 Calm 29.77 1008 1 1 0.00 0.00
3:02 am 03:02 Mostly Cloudy with Fog 50 10 48 8.9 93 93 Calm 29.80 1009 1 1 0.00 0.00
3:10 am 03:10 Clear with Mist and Fog 50 10 48 8.9 93 93 Calm 29.80 1009 1 1 0.00 0.00
3:20 am 03:20 Clear with Mist and Fog 51 10.6 49 9.4 92 92 Calm 29.80 1009 2 3 0.00 0.00
3:27 am 03:27 Clear 51 10.6 49 9.4 92 92 Calm 29.80 1009 9 14 0.00 0.00
3:53 am 03:53 Clear 50 10 47 8.3 89 89 W 3 6 29.78 1009 10 16 0.00 0.00
4:42 am 04:42 Clear with Mist and Fog 48 8.9 46 7.8 93 93 Calm 29.83 1010 1 1 0.00 0.00
4:53 am 04:53 Mostly Cloudy with Mist and Fog 49 9.4 46 7.8 90 90 Calm 29.78 1008 1 1 0.00 0.00
4:56 am 04:56 Clear with Mist and Fog 49 9.4 46 7.8 90 90 Calm 29.80 1009 1 1 0.00 0.00
5:08 am 05:08 Mostly Cloudy with Fog 50 10 47 8.3 89 89 Calm 29.80 1009 1 1 0.00 0.00
5:14 am 05:14 Mostly Clear with Mist and Fog 49 9.4 47 8.3 93 93 Calm 29.83 1010 1 2 0.00 0.00
5:17 am 05:17 Mostly Clear with Mist and Fog 49 9.4 47 8.3 93 93 Calm 29.83 1010 3 5 0.00 0.00
5:36 am 05:36 Mostly Cloudy with Mist and Fog 49 9.4 47 8.3 93 93 E 3 6 29.83 1010 2 3 0.00 0.00
5:40 am 05:40 Mostly Cloudy with Mist and Fog 49 9.4 47 8.3 93 93 Calm 29.83 1010 1 1 0.00 0.00
5:44 am 05:44 Mostly Cloudy with Fog 50 10 48 8.9 93 93 Calm 29.83 1010 0 0 0.00 0.00
5:53 am 05:53 Mostly Cloudy with Fog 51 10.6 50 10 96 96 Calm 29.79 1009 0 0 0.00 0.00
6:26 am 06:26 Mostly Cloudy with Fog 49 9.4 47 8.3 93 93 Calm 29.83 1010 1 1 0.00 0.00
6:37 am 06:37 Mostly Cloudy with Fog 50 10 48 8.9 93 93 Calm 29.83 1010 0 0 0.00 0.00
6:53 am 06:53 Mostly Cloudy with Fog 51 10.6 49 9.4 92 92 Calm 29.81 1009 0 0 0.00 0.00
7:53 am 07:53 Mostly Cloudy with Fog 53 11.7 51 10.6 93 93 Calm 29.81 1009 1 1 0.00 0.00
8:00 am 08:00 Mostly Cloudy with Fog 53 11.7 52 11.1 96 96 Calm 29.85 1011 0 0 0.00 0.00
8:33 am 08:33 Mostly Cloudy with Mist and Fog 56 13.3 54 12.2 93 93 Calm 29.85 1011 1 2 0.00 0.00
8:37 am 08:37 Cloudy with Mist and Fog 57 13.9 55 12.8 93 93 E 3 6 29.85 1011 3 5 0.00 0.00
8:53 am 08:53 Mostly Cloudy 57 13.9 55 12.8 93 93 Calm 29.80 1009 10 16 0.00 0.00
9:00 am 09:00 Mostly Sunny 58 14.4 55 12.8 90 90 VRB 3 6 29.80 1009 10 16 0.00 0.00
9:53 am 09:53 Sunny 65 18.3 56 13.3 73 73 Calm 29.80 1009 10 16 0.00 0.00
10:53 am 10:53 Sunny 69 20.6 57 13.9 66 66 WSW 6 9 29.80 1009 10 16 0.00 0.00
11:53 am 11:53 Mostly Sunny 71 21.7 56 13.3 59 59 Calm 29.79 1009 10 16 0.00 0.00
12:53 pm 12:53 Mostly Sunny 73 22.8 56 13.3 55 55 NE 6 9 29.77 1008 10 16 0.00 0.00
1:53 pm 13:53 Mostly Sunny 75 23.9 56 13.3 52 52 VRB 3 6 29.76 1008 10 16 0.00 0.00
2:53 pm 14:53 Mostly Sunny 79 26.1 57 13.9 47 47 NW 5 7 29.73 1007 10 16 0.00 0.00
3:53 pm 15:53 Sunny 79 26.1 55 12.8 44 44 SSE 9 15 29.71 1006 10 16 0.00 0.00
4:53 pm 16:53 Sunny 80 26.7 56 13.3 44 44 S 7 11 29.70 1006 10 16 0.00 0.00
5:53 pm 17:53 Sunny 79 26.1 54 12.2 42 42 S 7 11 29.69 1005 10 16 0.00 0.00
6:53 pm 18:53 Sunny 76 24.4 56 13.3 50 50 S 6 9 29.68 1005 10 16 0.00 0.00
7:53 pm 19:53 Clear 68 20 57 13.9 68 68 SSE 6 9 29.69 1005 10 16 0.00 0.00
8:53 pm 20:53 Clear 66 18.9 56 13.3 70 70 SSE 6 9 29.69 1006 10 16 0.00 0.00
9:53 pm 21:53 Clear 66 18.9 56 13.3 70 70 SSE 7 11 29.70 1006 10 16 0.00 0.00
10:53 pm 22:53 Clear 65 18.3 55 12.8 70 70 SSE 5 7 29.69 1006 10 16 0.00 0.00
11:53 pm 23:53 Clear 62 16.7 54 12.2 75 75 SSE 6 9 29.69 1005 10 16 0.00 0.00

Powered by AerisWeather